[[{"header":{"parameterUnit":"m.s-1","parameterCategory":1,"la1":30.2991,"la2":30.254,"lo1":-89.0895,"lo2":-89.0444,"dy":0.0017,"dx":0.0017,"nx":28,"ny":28,"refTime":"2024-05-24T09:00:00:Z","depth":0,"parameterNumber":2,"parameterNumberName":"U-component_of_WINDS"},"data":[0,0,0,0,0,0,0,0,0,0,0,0,0,0,0,0,0,0,0,0,0,0,0,0,0,0,0,0,0,0,0,0,0,0,0,0,0,0,0,0,0,0,0,0,0,0,0,0,0,0,0,0,0,0,0,0,0,0,0.0258,0.0258,0,0.03,0.0301,0.0301,0.0313,0.0313,0.0312,0.0312,0.0357,0.0358,0.0359,0,0,0,0,0,0,0,0,0,0,0,0,0,0.0187,0.0189,0.0258,0.0258,0.0259,0.03,0.0301,0.0301,0.0313,0.0313,0.0312,0.0312,0.0356,0.0358,0.0359,0,0,0,0,0,0,0,0,0,0,0,0,0,0.0223,0.0189,0.0258,0.027,0.0271,0.03,0.0301,0.0302,0.0313,0.0313,0.0312,0.0312,0.0356,0.0358,0.036,0.038,0,0,0.0366,0.0367,0,0,0,0,0,0,0,0,0.0221,0.0225,0.0267,0.0269,0.0271,0.0301,0.0292,0.0328,0.0313,0.0297,0.0312,0.0312,0.0338,0.0342,0.0351,0.0382,0.0384,0.0366,0.0368,0.0369,0.0369,0,0,0,0,0,0,0,0.0218,0.0224,0.0275,0.0268,0.027,0.0273,0.0278,0.0299,0.0319,0.0299,0.0299,0.0304,0.0339,0.0349,0.0352,0.0385,0.0366,0.0368,0.037,0.037,0.0435,0.0435,0,0,0,0,0,0,0.0214,0.0221,0.0273,0.0276,0.0244,0.0275,0.028,0.0292,0.0319,0.0323,0.0305,0.0305,0.0345,0.0349,0.0353,0.0379,0.0369,0.0371,0.0372,0.0434,0.0435,0.0435,0,0,0,0,0,0,0.0212,0.0218,0.0272,0.0249,0.0256,0.0276,0.0289,0.0293,0.0302,0.0324,0.0327,0.031,0.0345,0.035,0.0373,0.038,0.0371,0.0373,0.0434,0.0434,0.0435,0.0429,0,0,0,0,0,0,0.021,0.0218,0.0225,0.0249,0.0257,0.029,0.029,0.0294,0.0305,0.0306,0.033,0.0334,0.0345,0.037,0.0375,0.0383,0.0375,0.0433,0.0434,0.0435,0.0429,0.043,0.043,0,0,0,0,0,0.0208,0.0222,0.0226,0.0232,0.0267,0.0291,0.0295,0.0308,0.0306,0.0314,0.0328,0.0333,0.0379,0.0372,0.0378,0.0387,0.0433,0.0434,0.0435,0.0429,0.043,0.043,0,0,0,0,0,0,0.02,0.0226,0.023,0.0253,0.0269,0.0293,0.0303,0.0309,0.0326,0.0326,0.0341,0.0347,0.0368,0.038,0.0372,0.0408,0.0406,0.0408,0.0399,0.04,0.0401,0.0397,0.0377,0,0,0,0,0,0.02,0.0217,0.0239,0.0257,0.0266,0.0283,0.0294,0.0302,0.032,0.0327,0.0343,0.036,0.0378,0.039,0.0408,0.0431,0.0436,0.044,0.0441,0.0441,0.0443,0.0455,0.0457,0.0439,0.0439,0.0439,0,0,0.0202,0.0219,0.0229,0.0256,0.027,0.0287,0.0289,0.0307,0.0319,0.033,0.0352,0.0364,0.0385,0.0407,0.0418,0.0418,0.0449,0.0442,0.0443,0.0444,0.0456,0.0458,0.0459,0.0439,0.0439,0.0439,0,0,0.0215,0.0229,0.0245,0.0259,0.028,0.0291,0.0295,0.0318,0.0326,0.0348,0.0356,0.0372,0.0403,0.0417,0.0429,0.0446,0.0451,0.0451,0.0455,0.0467,0.0468,0.0469,0.0475,0.0477,0.0453,0.0453,0.0453,0,0.0215,0.024,0.0253,0.027,0.0282,0.0292,0.0309,0.0322,0.0347,0.0355,0.0355,0.0394,0.0408,0.0434,0.0438,0.0447,0.0452,0.0448,0.0467,0.0468,0.047,0.0475,0.0477,0.0453,0.0453,0.0453,0.0453,0,0.0239,0.0256,0.0267,0.0291,0.0304,0.0321,0.0337,0.0348,0.0356,0.0367,0.039,0.0408,0.0429,0.0436,0.0443,0.0463,0.0462,0.0464,0.0462,0.0471,0.0476,0.0479,0.0453,0.0453,0.0453,0.0453,0,0,0.0247,0.0277,0.0281,0.0292,0.0315,0.0329,0.0347,0.0367,0.0377,0.0395,0.0409,0.0436,0.0437,0.045,0.0459,0.047,0.0482,0.0471,0.0471,0.0471,0.0504,0.0501,0.0504,0.0485,0.0486,0.0486,0.0502,0,0.0261,0.0292,0.0304,0.0329,0.0345,0.0355,0.037,0.0386,0.0398,0.0413,0.0426,0.0444,0.0445,0.0453,0.0464,0.0478,0.0488,0.0477,0.0499,0.05,0.0493,0.0507,0.0504,0.0518,0.0504,0.0504,0.0504,0,0.0282,0.0299,0.0326,0.0347,0.0354,0.0367,0.0387,0.0402,0.0421,0.0428,0.0442,0.0451,0.0469,0.0467,0.0492,0.0485,0.0494,0.0503,0.0504,0.0506,0.0502,0.0508,0.0523,0.0524,0.0508,0.0508,0.0508,0,0.0284,0.0314,0.0334,0.0343,0.0368,0.0377,0.0388,0.0406,0.0418,0.0435,0.0443,0.0463,0.0473,0.0488,0.0502,0.0499,0.0526,0.0525,0.0533,0.0532,0.0538,0.0537,0.0553,0.0545,0.0545,0.0545,0.0545,0,0.0299,0.0314,0.0335,0.0347,0.0365,0.0379,0.0396,0.0408,0.0424,0.0438,0.0449,0.0462,0.0479,0.0495,0.0506,0.0525,0.053,0.0537,0.0539,0.0536,0.0535,0.0542,0.0541,0.0546,0.0545,0.0545,0.0545,0,0.0304,0.0318,0.034,0.0362,0.0368,0.038,0.0399,0.0411,0.0423,0.0441,0.0447,0.0465,0.0484,0.0499,0.0524,0.0532,0.0552,0.0555,0.0545,0.0547,0.0553,0.0552,0.0574,0.0578,0.0568,0.0568,0.0568,0,0.0312,0.0324,0.0347,0.0358,0.0368,0.0385,0.0397,0.0411,0.0423,0.0445,0.0454,0.0474,0.049,0.052,0.0536,0.0555,0.0559,0.0565,0.0562,0.0557,0.0558,0.0557,0.0558,0.0565,0.0565,0.0565,0.0565,0,0.0324,0.0331,0.0347,0.0365,0.0379,0.0395,0.041,0.0418,0.0436,0.0448,0.0468,0.048,0.0506,0.0525,0.0546,0.0558,0.0564,0.0566,0.0569,0.0565,0.0558,0.0561,0.0546,0.0566,0.0566,0.0566,0.0566,0.0565,0.0331,0.0342,0.036,0.0377,0.0391,0.0405,0.0417,0.043,0.0447,0.0468,0.0476,0.0495,0.0514,0.0542,0.0554,0.057,0.057,0.0575,0.0575,0.0576,0.0575,0.0556,0.0574,0.0574,0.0574,0.0574,0.0574,0,0.0343,0.0355,0.0371,0.0392,0.0406,0.0411,0.0429,0.044,0.0457,0.0474,0.0489,0.0512,0.053,0.0548,0.0567,0.0577,0.058,0.0581,0.0581,0.0583,0.0574,0.0569,0.0578,0.0578,0.0578,0.0578,0.0578,0.0578,0.0351,0.037,0.0378,0.0404,0.0416,0.0435,0.0444,0.0458,0.0471,0.0495,0.051,0.0521,0.0538,0.0559,0.0576,0.0581,0.0588,0.0588,0.0593,0.0584,0.0584,0.0583,0.0579,0.0589,0.0589,0.0601,0.0601,0.0601]},{"header":{"parameterUnit":"m.s-1","parameterCategory":1,"la1":30.2991,"la2":30.254,"lo1":-89.0895,"lo2":-89.0444,"dy":0.0017,"dx":0.0017,"nx":28,"ny":28,"refTime":"2024-05-24T09:00:00:Z","depth":0,"parameterNumber":3,"parameterNumberName":"V-component_of_WINDS"},"data":[0,0,0,0,0,0,0,0,0,0,0,0,0,0,0,0,0,0,0,0,0,0,0,0,0,0,0,0,0,0,0,0,0,0,0,0,0,0,0,0,0,0,0,0,0,0,0,0,0,0,0,0,0,0,0,0,0,0,3.0416,3.0415,0,3.0371,3.0371,3.037,3.026,3.0258,3.0256,3.0253,3.0209,3.021,3.0211,0,0,0,0,0,0,0,0,0,0,0,0,0,3.0406,3.0407,3.0416,3.0415,3.0415,3.0372,3.0371,3.037,3.0261,3.0258,3.0255,3.0252,3.0209,3.021,3.0211,0,0,0,0,0,0,0,0,0,0,0,0,0,3.0391,3.0407,3.0416,3.0355,3.0349,3.0372,3.0371,3.037,3.0261,3.0258,3.0254,3.0251,3.0209,3.021,3.0211,3.0291,0,0,3.0216,3.0217,0,0,0,0,0,0,0,0,3.0392,3.0391,3.0364,3.0359,3.0352,3.0318,3.0351,3.0344,3.0262,3.0295,3.0253,3.0249,3.0248,3.0246,3.0246,3.0289,3.0287,3.0216,3.0217,3.0218,3.0218,0,0,0,0,0,0,0,3.0393,3.0393,3.0398,3.0364,3.0357,3.033,3.0324,3.0349,3.0292,3.0291,3.0283,3.0279,3.0244,3.0245,3.0244,3.0286,3.0216,3.0217,3.0218,3.0219,3.0389,3.0393,0,0,0,0,0,0,3.0403,3.0394,3.04,3.0397,3.0364,3.0333,3.0326,3.0332,3.0291,3.0281,3.0283,3.0275,3.0244,3.0242,3.0242,3.033,3.0218,3.0219,3.022,3.0386,3.039,3.0394,0,0,0,0,0,0,3.0403,3.0404,3.0401,3.0393,3.0391,3.0336,3.0345,3.0333,3.0333,3.0284,3.0273,3.0293,3.0241,3.024,3.0279,3.0327,3.022,3.0221,3.0381,3.0387,3.0392,3.0508,0,0,0,0,0,0,3.0403,3.0405,3.0435,3.0395,3.0392,3.0439,3.0348,3.0335,3.0336,3.0325,3.0291,3.0282,3.0238,3.0277,3.028,3.0327,3.0222,3.0377,3.0384,3.039,3.05,3.0517,3.0531,0,0,0,0,0,3.0403,3.047,3.0437,3.0438,3.0428,3.0442,3.0441,3.0388,3.034,3.0369,3.0338,3.0284,3.0321,3.0282,3.0285,3.0333,3.0373,3.0382,3.039,3.0492,3.0513,3.0531,0,0,0,0,0,0,3.0518,3.0464,3.0426,3.0482,3.0468,3.0424,3.0459,3.0412,3.0411,3.0401,3.0336,3.0329,3.0377,3.0359,3.0316,3.0406,3.0338,3.0348,3.0416,3.0435,3.0451,3.0454,3.0224,0,0,0,0,0,3.0549,3.0566,3.0518,3.0571,3.0566,3.0514,3.0519,3.0479,3.0461,3.0455,3.0426,3.0412,3.042,3.0427,3.0432,3.0497,3.0487,3.0531,3.0547,3.056,3.0568,3.06,3.0618,3.0421,3.0421,3.042,0,0,3.0615,3.0587,3.0602,3.0594,3.0578,3.0596,3.051,3.0533,3.0545,3.0459,3.0493,3.0471,3.0451,3.0503,3.0524,3.0489,3.0621,3.0571,3.0582,3.0582,3.061,3.0629,3.0645,3.0426,3.0425,3.0424,0,0,3.0743,3.0725,3.0766,3.0752,3.0729,3.0693,3.0704,3.0667,3.0649,3.0682,3.0617,3.0631,3.0647,3.0634,3.063,3.0753,3.0702,3.0756,3.0839,3.087,3.0886,3.0899,3.0941,3.0957,3.0765,3.0765,3.0766,0,3.0828,3.0852,3.0794,3.0821,3.0818,3.074,3.0781,3.077,3.0751,3.0751,3.0712,3.0729,3.071,3.0757,3.0786,3.0786,3.0795,3.0759,3.0888,3.0901,3.0913,3.0952,3.0968,3.0772,3.0771,3.077,3.077,0,3.0956,3.0974,3.1011,3.0992,3.0994,3.1028,3.0975,3.0984,3.0945,3.0914,3.0948,3.0922,3.0919,3.0928,3.089,3.0969,3.0948,3.09,3.083,3.0939,3.0975,3.099,3.0781,3.0779,3.0777,3.0775,0,0,3.1155,3.1103,3.1117,3.1107,3.1075,3.1088,3.1118,3.1115,3.1123,3.1113,3.1135,3.115,3.1105,3.11,3.106,3.1088,3.1184,3.1036,3.1034,3.1063,3.1268,3.1303,3.1322,3.1151,3.1154,3.1156,3.1269,0,3.1275,3.1322,3.1271,3.1329,3.1344,3.127,3.1296,3.1279,3.1251,3.1259,3.1228,3.1239,3.1179,3.1176,3.12,3.1168,3.1224,3.1159,3.1171,3.1172,3.1177,3.1341,3.1379,3.1487,3.1283,3.1285,3.1287,0,3.142,3.1414,3.1474,3.1437,3.1441,3.1466,3.1457,3.1467,3.1446,3.1424,3.1418,3.1369,3.1396,3.1329,3.1364,3.1321,3.1323,3.1308,3.1311,3.1309,3.1236,3.1342,3.152,3.1536,3.1309,3.1307,3.1306,0,3.1557,3.1565,3.1601,3.1595,3.1552,3.1571,3.1554,3.153,3.1531,3.1524,3.1524,3.1521,3.152,3.1518,3.147,3.1426,3.151,3.144,3.1492,3.1493,3.1512,3.1511,3.1691,3.1516,3.1516,3.1515,3.1515,0,3.1695,3.1734,3.1661,3.1684,3.1725,3.1665,3.1708,3.1684,3.1662,3.1678,3.1614,3.1631,3.1566,3.1576,3.1538,3.1572,3.1572,3.1554,3.1543,3.1559,3.1561,3.1558,3.1549,3.152,3.1519,3.1518,3.1517,0,3.1854,3.1807,3.1842,3.1798,3.1789,3.1821,3.1784,3.1802,3.177,3.1791,3.1792,3.1741,3.1748,3.17,3.1699,3.1674,3.1726,3.1703,3.1732,3.1725,3.1778,3.1773,3.1962,3.1983,3.1796,3.1798,3.1799,0,3.1945,3.1973,3.1932,3.1938,3.1924,3.1935,3.1935,3.1877,3.188,3.1857,3.1878,3.1881,3.1879,3.1895,3.1858,3.1856,3.1832,3.1898,3.1831,3.1846,3.1831,3.1829,3.1831,3.1912,3.1914,3.1916,3.1918,0,3.2109,3.2084,3.2087,3.2081,3.2083,3.2076,3.2064,3.2073,3.201,3.2016,3.2022,3.2021,3.202,3.2022,3.2013,3.1996,3.1947,3.1939,3.195,3.1966,3.1982,3.1972,3.1769,3.1935,3.1933,3.1932,3.1931,3.193,3.2236,3.2256,3.2231,3.2235,3.222,3.2211,3.2225,3.2194,3.2198,3.2192,3.2158,3.217,3.2147,3.213,3.2117,3.2126,3.2094,3.2111,3.2115,3.212,3.2129,3.1981,3.2124,3.2124,3.2123,3.2123,3.2122,0,3.2395,3.2375,3.238,3.2365,3.2368,3.2321,3.2305,3.2311,3.2323,3.2306,3.2305,3.2312,3.2314,3.2277,3.2274,3.2288,3.2265,3.2289,3.2287,3.2283,3.2159,3.2148,3.2308,3.2308,3.2308,3.2308,3.2307,3.2307,3.2479,3.2511,3.2483,3.2507,3.2486,3.2497,3.2492,3.2483,3.2468,3.2479,3.248,3.2455,3.2429,3.2424,3.2423,3.2412,3.2414,3.2445,3.2427,3.231,3.2292,3.2275,3.2265,3.2446,3.2447,3.255,3.2551,3.2552]}]]